Wind_Speed
13 16 18 17 15 11 6 3 3 4 4 4 3 3 2 2 2 2 2 2 2 2 2 1 1 2 3 7 10 12 12 13 13 13 13 13 13 13 13 13 13 12 11 12 11 10 9 9 10 12 13 12 13 14 15 14 12 10 10 12 17 22 25
11 14 16 16 16 13 8 4 2 3 3 3 3 3 3 3 2 3 5 5 5 4 3 4 4 3 4 5 6 8 9 11 11 11 11 11 11 11 11 11 12 11 10 10 10 9 7 6 7 9 10 10 11 13 14 13 11 10 9 9 11 15 20
9 12 15 15 15 13 9 5 3 1 0 1 1 2 3 4 4 4 5 7 7 7 7 7 6 6 6 7 6 6 6 6 7 7 7 8 9 9 9 9 9 8 8 8 7 7 6 5 5 5 6 7 8 11 12 11 11 12 11 10 9 10 13
7 10 13 14 14 13 9 5 3 2 3 3 4 5 5 6 6 6 6 7 7 8 8 7 7 7 7 8 8 7 7 6 6 6 6 6 6 6 5 5 5 5 5 6 6 6 6 5 5 4 4 4 4 7 9 9 11 13 13 12 9 9 10
6 8 10 12 12 11 8 4 3 3 5 6 7 7 8 8 7 7 7 7 7 7 7 7 7 7 7 8 8 7 7 7 6 6 5 5 4 4 3 3 4 4 4 4 4 4 3 4 4 3 2 2 2 2 4 7 8 10 13 12 9 8 9
5 6 8 9 9 9 7 4 3 4 6 8 9 10 11 11 11 11 10 10 10 9 9 9 8 8 8 8 7 7 7 6 5 4 4 3 3 3 3 3 4 4 4 4 4 4 3 4 5 4 4 4 4 4 4 6 6 6 8 9 9 8 8
3 3 5 6 6 6 6 4 2 4 8 11 13 14 15 16 16 16 15 15 15 14 13 13 13 12 11 11 11 10 10 9 8 7 7 6 4 3 2 1 1 1 2 2 2 3 3 3 4 5 5 6 6 8 8 8 7 6 5 7 8 10 9
3 2 2 2 3 4 5 4 2 4 8 12 15 17 18 19 19 19 18 18 18 18 18 18 17 17 16 16 15 15 15 14 14 13 12 11 10 9 7 7 6 5 5 5 4 4 4 3 3 3 3 4 5 6 8 9 8 7 7 7 8 9 11
7 5 2 1 1 1 3 2 1 4 7 11 14 16 18 18 18 18 18 18 18 18 18 18 18 18 17 17 16 16 16 15 15 14 14 13 12 12 11 10 9 9 8 8 7 7 7 7 6 5 4 4 4 4 5 6 6 7 8 8 8 9 11
9 7 5 3 3 2 2 2 2 3 5 8 11 13 15 15 15 15 15 16 16 15 15 15 15 15 15 15 14 14 13 13 13 13 12 12 12 12 11 11 11 10 10 9 10 10 9 8 8 7 6 5 4 5 5 5 5 6 7 7 7 8 10
12 10 8 7 6 5 4 3 3 3 4 5 7 9 10 11 11 11 11 11 11 11 11 10 10 10 10 10 10 10 10 10 10 10 10 10 10 10 10 10 10 9 9 8 9 10 10 9 8 7 7 6 5 5 5 5 5 6 7 7 7 8 9
15 14 12 12 11 9 7 6 6 4 5 5 5 5 5 6 7 7 7 7 7 6 6 6 5 5 5 5 5 6 6 6 7 7 7 8 9 10 10 10 10 10 8 8 8 9 10 9 9 8 8 7 7 6 6 6 6 6 7 8 10 10 10
16 17 17 16 14 12 11 10 9 7 7 7 6 6 5 4 4 3 3 3 3 2 2 2 2 3 3 3 3 3 4 4 5 6 6 7 7 8 9 9 9 10 10 10 10 10 9 8 8 8 8 8 7 7 6 7 7 8 8 8 10 12 12
18 19 20 19 18 16 15 14 12 11 10 9 8 8 8 8 8 8 6 5 4 3 4 4 5 6 6 6 6 5 6 6 6 7 7 7 7 7 8 8 9 9 10 11 11 11 11 9 8 7 8 8 8 7 6 6 6 7 9 10 11 12 13
21 21 21 22 21 20 20 18 16 15 14 13 12 11 10 9 9 9 9 9 9 9 10 9 10 11 11 10 9 8 8 8 8 8 8 9 9 9 8 8 9 9 9 10 10 11 11 11 11 11 11 12 11 11 10 8 8 7 7 9 11 13 14
24 23 23 25 26 24 21 20 19 17 16 15 15 14 12 11 10 10 9 10 10 11 11 10 12 14 15 14 12 12 12 11 11 10 9 10 11 11 11 10 10 10 11 11 11 11 11 12 13 14 14 15 15 15 15 14 13 12 10 10 11 12 13
25 25 28 29 30 28 26 23 22 20 17 17 17 16 15 15 14 13 13 12 12 12 12 12 13 14 16 17 16 16 16 16 14 12 10 11 11 12 12 12 12 12 13 13 13 13 13 14 15 16 17 18 18 19 20 19 19 18 16 15 15 14 14
27 28 31 32 33 33 32 29 26 21 18 19 18 16 16 17 17 17 16 16 15 15 16 17 19 19 19 21 23 22 20 19 17 14 13 13 13 14 14 14 14 14 14 15 15 15 16 16 17 18 19 20 21 22 22 22 22 23 22 21 20 19 18
27 26 27 28 32 37 37 34 29 22 20 21 19 16 16 17 17 18 18 18 18 18 19 21 24 25 25 25 28 27 21 19 18 16 14 15 15 16 16 17 17 16 16 17 18 19 19 20 20 20 21 22 23 24 24 24 24 25 25 24 23 22 22
24 23 25 26 28 31 33 31 26 21 21 23 20 18 19 17 15 15 16 17 19 19 20 22 24 25 24 23 26 29 26 21 19 17 15 15 16 17 17 18 18 18 18 19 21 22 23 23 23 23 23 24 24 25 26 26 26 26 26 25 24 24 24
22 21 24 27 28 28 28 27 23 21 22 21 16 16 19 17 15 16 17 18 18 18 19 20 20 19 19 18 19 25 29 27 22 17 15 15 16 18 18 18 18 19 20 22 23 24 24 25 26 26 26 27 27 27 28 28 28 27 27 26 25 26 26
24 24 26 27 26 23 22 22 21 20 20 18 16 17 18 18 19 19 17 16 15 15 14 14 14 14 15 16 16 19 23 28 28 24 21 20 20 21 20 20 20 21 23 25 25 25 26 27 29 30 30 30 30 29 29 29 29 29 29 28 27 28 28
24 24 21 20 17 15 14 16 17 18 18 19 20 20 20 20 20 18 15 14 14 15 14 13 13 13 14 15 16 17 19 23 27 28 27 27 27 25 23 22 22 23 25 26 27 28 28 29 31 32 33 33 32 31 30 29 30 31 31 30 30 30 30
17 14 12 11 11 11 11 11 12 13 13 15 18 19 19 20 20 19 18 19 19 18 17 16 16 16 16 16 18 19 20 21 24 26 27 29 29 27 25 23 23 23 25 26 28 29 29 30 32 32 33 33 33 32 31 29 29 30 31 31 31 31 31
13 11 12 12 11 11 13 13 12 13 14 15 15 16 16 17 17 17 18 19 19 19 19 19 19 20 21 21 22 23 25 25 26 26 27 28 28 28 28 26 25 26 26 27 29 30 30 31 33 33 31 31 32 31 30 29 28 29 30 31 31 31 32
14 13 14 14 13 14 14 14 14 15 16 16 17 18 18 19 20 21 21 21 22 23 23 23 24 25 26 26 26 27 28 28 28 27 27 28 28 29 29 29 30 30 28 28 30 32 32 34 35 33 30 29 29 30 29 28 27 28 29 31 31 31 33
15 15 15 15 15 15 16 16 17 17 18 19 20 22 22 23 24 24 24 23 24 24 24 25 25 25 26 27 27 27 27 27 27 27 27 29 31 31 30 29 30 30 29 30 32 34 35 36 35 33 31 30 30 30 30 28 28 29 31 32 33 33 34
18 18 18 18 18 19 20 21 20 19 19 19 19 20 21 22 22 22 22 21 21 21 22 22 23 23 24 25 26 26 26 26 26 27 28 30 32 32 30 28 29 31 31 31 34 35 36 36 36 35 35 34 33 32 32 30 30 32 34 35 35 36 36
22 22 21 21 21 21 20 20 19 18 17 17 17 18 20 21 21 22 22 22 22 22 22 22 23 23 24 24 25 27 27 27 27 28 28 30 31 31 29 28 29 31 32 32 34 36 37 37 37 37 38 37 36 35 33 32 34 35 37 37 37 37 37
23 23 23 22 22 21 19 19 18 18 18 18 19 20 21 22 23 23 23 24 24 24 24 23 24 24 24 25 25 26 26 26 27 27 27 29 30 29 30 30 30 31 33 34 36 38 38 38 39 39 39 39 38 36 35 35 36 37 37 38 38 38 39
24 24 23 23 22 22 21 21 21 21 21 21 22 23 24 24 24 24 25 25 25 25 25 24 24 25 25 25 26 26 26 26 25 25 26 27 27 28 29 30 30 32 35 36 37 38 39 39 40 40 39 39 38 37 36 37 38 38 38 39 40 41 42
24 24 24 24 24 24 24 24 23 23 23 24 25 26 26 26 25 25 25 25 25 25 25 25 26 26 26 26 27 27 28 28 27 27 28 28 28 29 29 30 31 33 35 37 38 39 39 40 40 40 40 39 39 38 39 40 39 39 40 41 42 43 43
24 24 24 24 24 25 26 26 25 25 25 26 27 28 28 27 27 26 26 25 25 26 26 26 26 26 27 27 28 29 30 30 30 30 30 30 31 31 32 32 33 35 36 38 39 40 40 40 41 40 40 40 40 41 41 40 38 38 40 41 42 42 42
25 25 25 24 24 25 27 28 29 28 28 28 29 29 29 29 28 28 27 27 27 27 27 27 27 27 27 27 28 29 29 29 30 30 31 31 32 33 34 35 35 36 37 37 38 39 39 40 40 40 41 42 42 41 38 36 36 38 41 42 43 43 43
27 28 28 27 27 28 29 30 31 31 31 32 32 32 32 31 31 30 30 29 28 27 27 26 26 26 26 27 28 28 29 29 29 30 30 31 32 34 35 35 36 36 36 36 37 38 38 39 39 40 40 40 39 38 38 39 40 42 43 44 45 45 44
29 29 30 30 30 31 31 32 32 32 33 34 34 35 34 33 33 32 31 30 29 28 27 26 26 26 27 28 29 30 30 31 31 31 32 32 33 34 35 35 34 35 35 35 36 36 37 36 36 37 38 38 40 40 41 43 44 44 45 45 45 45 44
33 32 32 33 34 34 33 33 33 33 34 35 36 37 36 34 32 30 29 28 27 27 27 27 27 28 29 29 30 31 31 33 34 34 34 34 35 35 35 34 33 34 35 36 36 36 35 34 34 35 37 39 39 40 41 43 44 44 44 45 44 44 44
Wind_Direction
11 13 14 17 18 13 360 313 268 245 238 234 231 226 224 219 194 152 130 152 180 192 203 201 210 213 192 202 219 226 227 228 228 230 235 238 239 243 247 251 255 260 266 270 270 268 267 262 262 263 264 264 259 260 265 271 280 285 286 278 263 255 252
5 8 14 17 19 19 13 355 309 263 251 242 236 219 203 188 157 128 115 118 128 129 116 101 97 99 122 159 189 209 220 224 222 222 229 232 234 239 244 248 255 261 264 264 264 265 266 265 271 273 272 272 267 266 268 269 275 278 279 284 274 261 251
355 4 13 15 18 21 21 23 27 355 227 200 187 167 168 164 153 143 127 117 118 120 114 104 103 108 114 123 135 155 177 188 189 194 204 212 216 221 229 238 248 255 257 261 266 271 276 278 281 278 274 279 277 275 274 272 271 271 273 280 278 265 248
341 1 9 12 15 19 22 31 54 79 91 92 101 112 126 139 145 144 137 130 127 125 122 119 119 123 127 128 131 137 142 143 150 160 169 179 189 200 213 228 243 254 260 269 273 272 274 279 283 279 270 274 278 282 289 286 275 267 271 281 281 267 253
329 2 6 7 14 18 18 22 52 82 92 94 99 106 113 121 128 130 131 130 126 123 122 123 124 126 129 132 133 135 138 141 147 154 159 163 173 189 203 223 242 254 263 271 271 267 268 275 283 285 272 260 249 274 304 301 287 276 275 281 283 272 265
316 8 10 4 15 22 16 14 47 84 96 100 102 105 108 110 112 112 112 112 112 113 114 112 112 113 113 116 120 121 125 132 137 140 145 155 176 201 220 236 248 260 271 276 279 282 276 270 271 272 271 271 270 275 291 296 299 302 288 281 280 282 286
298 25 24 4 13 25 24 25 58 98 104 104 103 104 104 104 104 104 102 101 101 101 100 99 98 97 96 96 95 93 91 89 88 86 84 83 81 73 56 29 8 350 335 323 319 316 304 293 288 285 281 277 280 281 282 281 282 288 285 277 276 281 290
224 111 66 3 11 33 38 39 78 114 112 109 108 106 104 102 101 100 98 97 97 96 95 94 91 90 89 87 85 83 82 79 76 74 73 71 69 66 63 60 58 53 50 50 43 33 25 15 10 355 328 304 293 286 282 283 281 276 269 266 268 273 280
205 164 173 256 314 62 64 56 104 131 125 117 113 110 107 105 103 101 100 97 96 94 92 91 89 88 86 83 82 80 78 76 73 71 69 67 66 66 66 64 63 61 59 58 56 51 43 37 34 32 23 3 343 325 309 304 296 285 280 272 266 266 270
201 176 192 204 219 192 134 123 129 144 144 130 123 117 112 110 108 106 105 102 99 96 93 90 87 85 82 79 77 74 72 70 68 65 62 59 58 58 58 58 57 57 56 54 50 45 39 35 34 34 33 24 8 352 340 334 325 306 299 290 274 270 271
193 178 197 196 202 209 196 193 175 162 174 159 142 131 124 121 117 113 111 107 104 101 96 92 88 84 82 77 71 66 61 59 54 52 49 44 42 40 39 40 39 38 41 38 34 32 28 23 22 26 28 27 22 11 354 338 328 315 307 303 292 284 281
198 184 201 200 198 209 216 216 205 196 205 203 189 174 158 145 136 130 125 113 106 102 95 88 81 74 71 69 66 57 47 40 31 26 25 22 20 19 16 17 18 16 14 10 4 9 17 19 18 15 12 11 12 9 1 348 333 320 308 300 296 294 291
217 197 203 208 210 216 221 222 222 226 224 224 232 239 240 229 216 199 170 147 125 112 91 61 35 12 4 1 3 5 1 359 356 353 357 359 357 357 356 355 356 358 359 358 352 351 358 9 16 15 9 4 2 357 352 344 334 325 317 307 298 294 292
226 210 208 214 219 221 224 225 230 237 235 228 231 241 255 260 260 263 263 264 267 274 287 305 317 317 314 308 302 303 309 312 316 320 325 331 333 334 337 338 338 340 345 347 347 345 343 343 344 346 348 348 348 350 348 341 331 323 317 314 308 302 297
233 226 220 223 227 229 229 229 230 236 240 237 232 236 252 263 263 264 269 274 276 277 284 294 302 304 302 297 290 288 290 290 292 299 303 305 310 313 312 315 318 319 323 327 330 332 331 328 323 321 323 325 326 328 331 333 334 331 321 312 307 305 303
236 239 238 233 229 230 233 235 238 243 247 246 242 244 253 261 261 261 264 271 274 272 273 286 297 297 294 289 286 286 285 282 280 283 290 294 295 298 297 296 299 301 305 308 310 313 315 315 314 314 316 318 319 319 319 321 323 327 328 322 310 300 296
239 249 252 240 228 227 229 228 231 240 247 248 246 249 257 261 261 264 266 268 271 266 263 275 289 289 282 276 278 283 281 278 276 273 275 281 281 282 282 281 283 285 289 293 294 297 301 304 307 309 311 311 312 313 314 314 314 316 319 322 322 313 299
247 250 249 236 224 224 226 224 225 231 239 247 249 253 258 261 261 263 266 269 272 271 272 279 285 288 283 271 266 272 273 269 270 271 269 271 273 274 274 273 274 276 280 284 285 286 290 294 297 300 302 303 304 306 307 309 310 310 310 312 318 322 316
250 252 253 244 229 222 222 223 227 228 231 238 245 254 257 257 259 260 262 267 271 278 285 289 292 296 297 279 259 257 261 258 256 259 262 265 268 271 274 276 276 278 280 281 282 282 284 286 288 291 294 297 299 301 303 306 308 309 307 306 309 317 320
248 251 258 257 247 235 225 222 225 234 239 235 234 248 251 249 257 262 265 272 280 289 296 300 301 303 304 290 260 248 248 247 248 252 254 257 262 267 273 278 282 285 285 283 281 281 282 284 285 287 288 291 295 298 301 303 305 307 308 305 305 309 315
253 257 260 253 246 242 235 231 233 243 248 238 235 255 256 254 266 273 277 285 291 298 301 304 307 303 297 291 268 251 245 240 241 251 256 256 262 267 273 278 283 285 286 285 286 286 287 287 286 286 287 290 293 296 298 299 301 304 306 305 304 306 310
257 263 267 256 245 244 250 257 262 266 268 263 263 271 268 268 276 279 284 293 297 300 300 299 299 291 281 276 269 262 253 240 238 247 258 265 270 272 274 279 283 285 286 288 292 294 294 293 291 291 292 292 293 293 294 296 298 301 303 303 302 303 306
259 262 266 264 267 275 281 284 286 288 291 284 277 275 275 278 282 282 284 287 287 287 286 283 280 275 272 269 264 264 259 248 245 250 258 266 272 275 277 281 285 286 287 291 294 296 296 295 295 295 294 294 293 291 291 292 294 297 299 300 301 301 303
258 264 264 269 282 286 278 281 285 284 283 278 274 275 277 279 281 279 275 274 275 276 275 274 275 272 272 271 267 264 261 258 257 257 261 266 272 276 280 283 285 284 286 290 292 291 292 294 296 295 292 291 291 291 289 288 290 292 294 296 298 300 301
250 253 254 258 265 263 260 265 269 268 268 266 263 262 263 267 270 270 269 269 271 272 272 274 277 278 277 274 271 268 266 264 264 265 267 269 271 275 279 281 280 280 282 286 287 286 288 291 293 294 292 289 289 289 286 285 287 288 289 290 293 296 297
249 249 251 257 262 260 255 251 249 254 259 257 252 252 254 258 263 266 267 268 269 271 274 276 276 277 276 273 270 267 266 266 267 269 270 270 271 273 276 277 276 276 279 283 283 283 285 287 289 292 292 290 289 286 282 281 283 284 285 287 289 293 295
251 250 253 258 259 255 249 246 248 252 253 252 251 254 257 261 266 269 271 272 273 273 274 275 274 272 270 270 269 269 268 269 269 270 270 270 271 271 272 272 273 275 277 279 279 278 279 282 286 289 289 290 290 285 280 279 280 281 284 286 289 291 293
253 254 257 258 257 255 253 252 253 252 253 254 255 259 263 266 268 270 273 276 276 275 275 275 274 272 271 272 274 275 276 275 273 271 270 271 272 272 270 270 271 275 277 278 278 277 277 280 285 288 288 289 289 285 280 279 281 282 284 286 288 290 290
253 255 258 259 259 258 255 251 248 247 250 255 260 264 268 270 272 274 276 277 277 276 276 276 276 276 276 277 278 279 279 278 277 275 272 271 273 274 276 275 276 279 281 281 281 280 279 281 284 286 287 290 290 286 280 279 282 284 286 287 288 288 287
251 253 254 256 257 256 250 245 243 245 250 255 259 263 266 269 273 276 277 278 278 278 277 276 276 277 277 278 279 279 280 280 279 277 275 273 273 273 273 274 275 276 277 278 279 281 281 282 283 285 288 290 290 286 282 282 284 286 288 288 287 286 286
249 252 252 253 254 252 249 247 249 252 256 259 261 264 267 270 274 276 278 278 278 277 276 275 274 274 275 277 278 278 278 278 279 279 279 278 278 276 273 271 271 273 274 276 278 280 282 283 285 287 288 287 286 285 284 283 284 286 288 288 288 287 287
245 246 247 248 250 250 250 250 251 254 257 261 264 267 270 273 275 277 277 277 276 275 275 273 273 274 274 275 276 276 276 277 278 280 282 283 283 282 279 276 273 273 274 276 277 278 281 283 284 284 283 283 282 282 281 282 284 288 290 289 289 289 288
249 247 245 245 247 249 250 250 252 254 257 261 264 268 272 275 278 279 279 279 278 277 276 275 275 276 276 276 277 277 277 277 278 279 281 282 282 282 280 278 275 275 275 276 277 279 281 282 281 280 279 278 278 278 280 284 288 291 291 290 290 288 288
254 254 255 254 253 253 251 251 251 253 257 261 265 268 272 275 278 281 282 282 281 280 279 278 278 277 276 275 275 276 276 277 278 278 279 279 279 279 279 279 280 279 279 279 280 281 281 280 278 278 278 278 280 283 286 289 291 291 291 291 291 290 290
249 255 260 262 261 259 258 257 256 256 258 260 262 266 269 273 276 279 281 281 281 280 279 279 278 277 276 275 274 273 273 274 275 276 277 277 278 278 279 280 281 282 281 281 280 279 278 278 278 279 280 283 287 289 291 291 290 290 291 291 291 291 291
241 247 253 257 260 263 264 264 264 264 265 264 265 268 271 274 276 276 277 276 275 274 275 275 276 277 276 276 275 274 273 273 274 275 277 278 278 278 278 279 279 278 278 278 278 276 276 278 281 283 285 287 288 289 289 289 289 290 290 289 289 289 289
239 243 247 252 258 261 263 265 266 268 270 272 273 275 277 278 277 274 272 271 271 272 273 275 276 276 277 277 276 276 275 274 273 274 276 277 278 277 277 276 275 274 275 276 275 275 277 280 283 284 285 286 287 287 287 287 287 288 288 287 288 289 290
Height
3133 3133 3132 3130 3129 3128 3127 3127 3127 3127 3128 3128 3128 3128 3128 3127 3127 3128 3127 3127 3127 3126 3127 3127 3127 3128 3128 3128 3129 3130 3132 3133 3134 3135 3136 3137 3137 3137 3138 3139 3139 3139 3140 3140 3140 3140 3140 3139 3139 3139 3139 3139 3139 3139 3138 3138 3138 3138 3137 3136 3136 3136 3137
3133 3133 3132 3131 3130 3128 3127 3127 3126 3126 3126 3127 3127 3127 3127 3127 3127 3127 3127 3127 3127 3127 3127 3127 3127 3127 3128 3128 3128 3129 3130 3131 3132 3134 3135 3136 3136 3137 3137 3137 3138 3138 3138 3138 3138 3138 3138 3138 3138 3138 3138 3138 3138 3137 3137 3137 3137 3136 3135 3134 3133 3133 3134
3133 3133 3132 3131 3130 3129 3128 3127 3126 3126 3126 3126 3126 3126 3126 3127 3127 3127 3127 3127 3127 3127 3127 3127 3127 3128 3128 3128 3128 3129 3129 3130 3132 3133 3134 3135 3135 3136 3136 3136 3137 3137 3137 3137 3137 3137 3137 3137 3137 3137 3137 3137 3136 3136 3135 3135 3135 3134 3133 3132 3132 3131 3131
3134 3133 3132 3131 3131 3130 3128 3128 3127 3127 3126 3126 3126 3126 3126 3126 3126 3126 3127 3127 3127 3127 3127 3128 3128 3128 3128 3128 3128 3129 3130 3130 3131 3132 3133 3134 3134 3135 3135 3135 3136 3136 3136 3136 3136 3136 3136 3136 3135 3135 3135 3135 3135 3134 3134 3133 3133 3132 3132 3132 3132 3131 3130
3134 3133 3132 3132 3131 3130 3130 3129 3128 3128 3127 3127 3126 3126 3127 3127 3127 3127 3127 3127 3127 3127 3128 3128 3128 3128 3128 3129 3129 3129 3130 3131 3131 3132 3133 3133 3134 3134 3134 3135 3135 3135 3135 3135 3135 3135 3135 3135 3135 3135 3135 3135 3135 3134 3133 3132 3131 3131 3131 3132 3132 3131 3130
3133 3133 3132 3132 3131 3131 3131 3130 3129 3128 3128 3128 3127 3127 3127 3127 3127 3128 3128 3128 3128 3128 3128 3128 3128 3128 3129 3129 3129 3130 3130 3131 3132 3132 3133 3133 3133 3133 3134 3134 3134 3135 3135 3135 3135 3135 3135 3135 3135 3135 3134 3134 3134 3133 3133 3132 3131 3131 3131 3131 3132 3131 3131
3132 3132 3132 3132 3131 3131 3131 3130 3130 3129 3129 3129 3128 3128 3128 3129 3129 3129 3128 3129 3129 3129 3129 3129 3129 3130 3130 3130 3130 3131 3131 3131 3132 3132 3132 3133 3133 3133 3133 3134 3134 3134 3134 3134 3134 3134 3134 3134 3134 3134 3133 3133 3133 3132 3132 3131 3131 3131 3131 3131 3131 3131 3132
3130 3131 3132 3131 3131 3131 3131 3131 3131 3131 3130 3130 3130 3129 3129 3129 3130 3130 3130 3130 3130 3130 3130 3131 3131 3131 3131 3132 3132 3132 3132 3133 3133 3133 3133 3133 3133 3134 3134 3134 3134 3134 3134 3134 3134 3134 3134 3133 3133 3133 3132 3132 3132 3131 3131 3131 3131 3131 3131 3131 3131 3131 3131
3129 3130 3131 3131 3131 3131 3131 3131 3132 3132 3132 3131 3131 3130 3130 3130 3131 3131 3131 3131 3131 3131 3131 3132 3132 3132 3133 3133 3134 3134 3134 3134 3134 3134 3135 3135 3135 3135 3135 3135 3135 3135 3135 3134 3134 3134 3134 3133 3133 3132 3132 3132 3131 3131 3131 3131 3131 3131 3131 3131 3131 3131 3131
3127 3129 3131 3131 3131 3131 3131 3131 3132 3132 3133 3132 3132 3131 3131 3131 3131 3131 3131 3132 3132 3132 3132 3132 3133 3133 3134 3134 3135 3135 3136 3136 3136 3136 3136 3136 3136 3136 3136 3136 3136 3135 3135 3135 3135 3134 3134 3133 3133 3132 3132 3131 3131 3131 3130 3130 3130 3130 3130 3130 3130 3130 3130
3126 3128 3130 3130 3131 3131 3131 3131 3131 3132 3133 3133 3132 3132 3132 3132 3132 3132 3132 3132 3132 3133 3133 3133 3133 3134 3134 3135 3135 3136 3136 3137 3137 3137 3137 3137 3137 3137 3137 3137 3136 3136 3136 3136 3135 3135 3134 3133 3133 3132 3132 3131 3131 3131 3130 3130 3130 3130 3130 3130 3130 3129 3129
3125 3126 3128 3129 3129 3130 3131 3131 3131 3132 3132 3133 3133 3133 3132 3132 3132 3132 3133 3133 3133 3133 3133 3134 3134 3134 3134 3135 3135 3136 3136 3137 3137 3137 3137 3137 3137 3137 3137 3137 3137 3136 3136 3136 3135 3135 3134 3133 3133 3132 3132 3131 3131 3131 3131 3130 3130 3130 3129 3129 3129 3128 3128
3123 3124 3125 3127 3127 3128 3130 3130 3130 3131 3131 3132 3132 3132 3133 3133 3133 3133 3133 3133 3134 3134 3134 3134 3134 3134 3135 3135 3135 3135 3136 3136 3136 3137 3137 3137 3137 3137 3137 3136 3136 3136 3136 3135 3135 3134 3134 3133 3133 3132 3132 3131 3131 3130 3130 3130 3129 3129 3129 3128 3128 3127 3127
3121 3121 3123 3124 3125 3126 3127 3128 3129 3129 3130 3131 3131 3131 3132 3132 3132 3133 3133 3134 3134 3134 3134 3134 3135 3135 3135 3135 3135 3135 3135 3135 3135 3136 3136 3136 3136 3136 3136 3136 3136 3135 3135 3135 3134 3134 3133 3133 3132 3132 3131 3131 3130 3130 3130 3129 3129 3128 3128 3127 3127 3126 3125
3119 3119 3120 3121 3122 3123 3124 3126 3127 3127 3128 3129 3129 3130 3131 3131 3131 3132 3132 3133 3133 3134 3134 3134 3135 3135 3135 3135 3135 3135 3134 3134 3134 3134 3135 3135 3135 3135 3135 3135 3135 3134 3134 3134 3133 3133 3132 3132 3132 3131 3130 3130 3129 3129 3128 3128 3128 3127 3127 3126 3125 3124 3124
3117 3117 3118 3118 3118 3119 3121 3123 3124 3125 3126 3126 3127 3128 3129 3129 3130 3131 3131 3132 3132 3132 3133 3134 3134 3135 3135 3135 3135 3135 3134 3133 3133 3133 3133 3133 3133 3133 3133 3133 3133 3133 3132 3132 3131 3131 3131 3130 3130 3129 3129 3128 3128 3127 3126 3126 3125 3125 3125 3124 3123 3123 3122
3115 3115 3115 3114 3114 3116 3118 3120 3121 3121 3122 3124 3124 3125 3126 3127 3128 3129 3129 3130 3130 3131 3131 3132 3133 3134 3134 3134 3134 3134 3133 3133 3132 3132 3132 3132 3132 3132 3131 3131 3131 3131 3130 3130 3129 3129 3128 3128 3127 3127 3127 3126 3125 3125 3124 3123 3122 3122 3122 3122 3121 3120 3120
3112 3111 3109 3109 3111 3113 3114 3116 3116 3117 3119 3121 3121 3122 3123 3124 3125 3126 3127 3127 3128 3129 3129 3130 3131 3132 3133 3133 3133 3133 3133 3132 3131 3131 3130 3130 3130 3130 3130 3129 3129 3129 3129 3128 3127 3127 3126 3126 3125 3125 3124 3124 3123 3122 3121 3121 3120 3119 3118 3118 3118 3118 3117
3109 3108 3108 3109 3110 3110 3110 3111 3113 3114 3116 3117 3118 3119 3121 3121 3122 3122 3123 3124 3125 3126 3127 3127 3127 3129 3129 3129 3129 3130 3130 3130 3130 3129 3129 3128 3128 3128 3128 3128 3127 3127 3127 3126 3125 3125 3124 3123 3123 3122 3121 3121 3120 3119 3119 3118 3117 3116 3116 3115 3114 3114 3114
3106 3106 3107 3108 3108 3109 3110 3111 3112 3112 3114 3114 3115 3117 3118 3118 3119 3120 3120 3121 3122 3123 3123 3123 3124 3124 3124 3124 3124 3125 3127 3128 3128 3127 3126 3126 3126 3126 3125 3125 3125 3125 3125 3124 3123 3122 3121 3121 3120 3119 3118 3117 3117 3116 3116 3115 3114 3113 3113 3112 3111 3111 3110
3105 3105 3105 3104 3105 3107 3109 3110 3111 3110 3111 3111 3112 3114 3116 3116 3117 3117 3118 3119 3120 3120 3120 3120 3120 3120 3120 3120 3120 3121 3122 3124 3125 3124 3124 3124 3124 3123 3123 3123 3123 3122 3121 3121 3120 3119 3119 3118 3117 3115 3114 3114 3113 3113 3112 3111 3111 3110 3109 3108 3107 3107 3106
3103 3104 3103 3103 3104 3105 3106 3109 3109 3108 3108 3108 3109 3111 3113 3113 3114 3115 3115 3116 3117 3118 3118 3119 3119 3118 3118 3118 3118 3118 3119 3120 3121 3121 3121 3121 3121 3120 3120 3120 3120 3119 3118 3118 3117 3116 3116 3115 3113 3112 3111 3111 3110 3109 3109 3108 3107 3106 3105 3104 3104 3103 3102
3100 3101 3101 3103 3104 3104 3105 3107 3108 3107 3107 3108 3108 3109 3110 3111 3111 3112 3113 3114 3114 3115 3116 3117 3117 3117 3117 3117 3116 3116 3117 3117 3118 3118 3118 3117 3117 3117 3117 3117 3117 3116 3115 3115 3114 3113 3113 3112 3111 3109 3108 3108 3107 3106 3106 3105 3103 3102 3101 3100 3100 3099 3098
3097 3099 3101 3102 3102 3102 3104 3105 3105 3105 3106 3107 3107 3107 3108 3109 3109 3110 3111 3112 3112 3113 3113 3114 3114 3115 3115 3115 3114 3114 3115 3115 3115 3115 3115 3114 3114 3114 3114 3114 3113 3113 3112 3112 3111 3110 3109 3109 3108 3107 3106 3105 3104 3104 3103 3101 3100 3098 3097 3096 3096 3095 3094
3096 3098 3100 3101 3101 3102 3103 3103 3103 3104 3104 3105 3105 3106 3106 3107 3107 3108 3109 3109 3110 3110 3111 3111 3112 3112 3112 3112 3112 3112 3112 3112 3112 3112 3111 3111 3111 3111 3111 3110 3110 3109 3109 3109 3108 3107 3106 3106 3105 3105 3103 3102 3101 3101 3099 3098 3096 3095 3093 3092 3092 3091 3090
3093 3096 3097 3098 3099 3100 3100 3100 3101 3102 3102 3103 3103 3104 3105 3105 3105 3106 3106 3107 3107 3108 3108 3108 3108 3108 3108 3108 3108 3108 3108 3108 3108 3108 3107 3107 3107 3108 3107 3107 3106 3105 3106 3106 3105 3103 3102 3102 3102 3101 3100 3099 3098 3096 3095 3094 3092 3091 3089 3088 3088 3088 3087
3090 3092 3093 3094 3095 3096 3096 3097 3098 3099 3100 3100 3101 3101 3101 3101 3102 3102 3102 3103 3103 3104 3104 3104 3104 3104 3104 3104 3104 3104 3104 3104 3104 3103 3103 3103 3103 3103 3103 3103 3103 3102 3102 3102 3100 3099 3098 3098 3098 3097 3096 3095 3093 3092 3091 3090 3088 3087 3086 3085 3084 3084 3083
3087 3089 3090 3091 3091 3092 3093 3094 3094 3095 3096 3096 3096 3097 3097 3097 3097 3098 3098 3099 3100 3100 3100 3100 3100 3100 3100 3100 3100 3100 3100 3100 3100 3100 3099 3099 3098 3098 3099 3099 3098 3098 3097 3097 3096 3095 3094 3094 3093 3092 3091 3090 3089 3088 3087 3086 3084 3082 3081 3080 3080 3079 3079
3084 3086 3087 3087 3088 3088 3089 3089 3090 3091 3091 3092 3092 3093 3093 3093 3093 3094 3095 3096 3096 3096 3097 3096 3096 3096 3096 3096 3096 3096 3096 3096 3096 3096 3096 3095 3095 3094 3094 3094 3094 3093 3093 3092 3092 3091 3090 3089 3088 3087 3086 3085 3084 3083 3082 3081 3079 3078 3077 3076 3075 3074 3074
3080 3082 3083 3083 3084 3084 3085 3085 3086 3087 3087 3088 3089 3089 3090 3090 3090 3091 3092 3092 3093 3093 3094 3093 3093 3093 3093 3093 3093 3092 3092 3092 3092 3092 3091 3091 3091 3091 3090 3090 3090 3090 3089 3088 3087 3086 3085 3084 3083 3082 3081 3079 3078 3078 3077 3076 3075 3073 3073 3072 3070 3069 3068
3077 3078 3079 3080 3080 3081 3082 3082 3083 3083 3084 3085 3085 3086 3086 3087 3088 3088 3089 3089 3090 3090 3090 3090 3090 3090 3090 3090 3089 3089 3089 3088 3088 3087 3087 3087 3087 3087 3087 3086 3086 3085 3084 3083 3082 3081 3080 3079 3078 3077 3076 3074 3073 3073 3072 3070 3069 3069 3068 3067 3065 3064 3062
3074 3074 3075 3076 3077 3078 3079 3079 3080 3080 3081 3081 3082 3082 3083 3084 3084 3085 3086 3086 3086 3087 3087 3087 3087 3087 3087 3086 3086 3086 3085 3085 3084 3084 3083 3083 3083 3082 3082 3081 3081 3080 3080 3079 3078 3077 3076 3075 3074 3072 3071 3070 3069 3068 3067 3066 3065 3064 3063 3062 3060 3058 3057
3069 3070 3072 3073 3074 3075 3075 3076 3077 3077 3078 3078 3078 3079 3079 3080 3080 3081 3081 3082 3083 3083 3083 3083 3083 3083 3083 3083 3082 3082 3082 3081 3081 3080 3080 3079 3079 3078 3078 3077 3077 3076 3076 3075 3073 3072 3071 3070 3069 3068 3067 3065 3064 3063 3063 3062 3061 3060 3058 3056 3055 3053 3051
3065 3065 3067 3069 3070 3071 3072 3073 3074 3074 3074 3074 3075 3076 3076 3076 3076 3077 3077 3078 3078 3079 3079 3079 3079 3079 3079 3079 3079 3078 3078 3077 3077 3076 3076 3075 3075 3074 3073 3073 3072 3072 3071 3070 3069 3068 3067 3065 3064 3063 3062 3060 3060 3059 3058 3058 3056 3054 3052 3050 3048 3047 3045
3061 3062 3063 3064 3065 3066 3068 3069 3070 3070 3071 3071 3072 3072 3073 3073 3073 3074 3074 3074 3074 3074 3074 3074 3075 3075 3075 3075 3075 3074 3074 3074 3073 3073 3072 3071 3071 3070 3069 3069 3068 3067 3066 3065 3064 3062 3061 3060 3059 3058 3057 3056 3055 3054 3053 3051 3050 3048 3046 3044 3042 3041 3039
3058 3059 3059 3060 3061 3062 3063 3063 3064 3065 3066 3067 3068 3068 3069 3069 3070 3070 3070 3070 3070 3070 3070 3070 3070 3070 3070 3070 3070 3070 3070 3070 3069 3069 3068 3067 3066 3066 3065 3064 3063 3062 3061 3060 3059 3057 3056 3056 3055 3054 3053 3051 3050 3049 3047 3045 3043 3042 3040 3038 3036 3035 3033
3055 3056 3056 3057 3057 3058 3059 3059 3060 3060 3060 3061 3062 3063 3063 3065 3066 3066 3066 3066 3065 3065 3065 3065 3065 3065 3065 3065 3065 3065 3065 3065 3064 3064 3064 3063 3061 3060 3060 3059 3058 3057 3056 3055 3054 3054 3053 3052 3051 3049 3047 3046 3045 3043 3042 3040 3038 3036 3034 3032 3030 3028 3026